This is the latest recevied weather packets stored in our database for station/object IZ7EXI-13. If no packets are shown the sender has not sent any weather packets the latest 10 day(s).
| Time | Temp. | Humidity | Pressure | Rain* | Wind** | Luminosity | Snow |
|---|---|---|---|---|---|---|---|
| 1787913257 | 37.78° C | 42% | 1018.2 hPa | - | - | - | - |
| 1787912384 | 37.78° C | 45% | 1018.5 hPa | - | - | - | - |
| 1787912356 | 37.78° C | 45% | 1018.5 hPa | - | - | - | - |
| 1787911488 | 36.11° C | 48% | 1018.5 hPa | - | - | - | - |
| 1787911456 | 36.11° C | 48% | 1018.5 hPa | - | - | - | - |
| 1787910587 | 35° C | 48% | 1018.7 hPa | - | - | - | - |
| 1787910556 | 35° C | 48% | 1018.7 hPa | - | - | - | - |
| 1787909656 | 35° C | 47% | 1018.8 hPa | - | - | - | - |
| 1787908756 | 34.44° C | 49% | 1018.9 hPa | - | - | - | - |
| 1787907855 | 34.44° C | 49% | 1019 hPa | - | - | - | - |
| 1787906955 | 35.56° C | 46% | 1019 hPa | - | - | - | - |
| 1787906055 | 36.67° C | 37% | 1018.8 hPa | - | - | - | - |
| 1787905187 | 35.56° C | 40% | 1018.9 hPa | - | - | - | - |
| 1787905187 | 35.56° C | 40% | 1018.9 hPa | - | - | - | - |
| 1787905155 | 35.56° C | 40% | 1018.9 hPa | - | - | - | - |
| 1787904288 | 35° C | 42% | 1018.9 hPa | - | - | - | - |
| 1787904254 | 35° C | 42% | 1018.9 hPa | - | - | - | - |
| 1787903354 | 34.44° C | 46% | 1018.8 hPa | - | - | - | - |
| 1787902482 | 33.89° C | 47% | 1018.9 hPa | - | - | - | - |
| 1787902454 | 33.89° C | 47% | 1018.9 hPa | - | - | - | - |
| 1787901588 | 33.33° C | 47% | 1019 hPa | - | - | - | - |
| 1787901554 | 33.33° C | 47% | 1019 hPa | - | - | - | - |
| 1787900653 | 32.78° C | 49% | 1019 hPa | - | - | - | - |
| 1787899753 | 32.22° C | 51% | 1019 hPa | - | - | - | - |
| 1787898853 | 31.67° C | 51% | 1019 hPa | - | - | - | - |
* Rain since midnight (hover to see other rain measurements)
** Current wind speed in m/s (hover to see current wind gust speed)